Location: *
(57.8420°S, 159.8600°W)
Time: 05:17:30
(UTC+00:00)

Meteor 1-11 - Pass Details

Date: 18 May 2021
Orbit: 840 x 887 km, 81.2° (Epoch: 20 June)

Event Time Altitude Azimuth Distance (km) Brightness Sun altitude
Rises 03:02:14 0° 353° (N) 3,413 7.9 -4.8°
Reaches altitude 10° 03:04:38 10° 354° (N) 2,490 7.2 -5.1°
Maximum altitude 03:10:17 77° 78° (ENE) 897 4.3 -5.8°
Drops below altitude 10° 03:16:04 10° 163° (SSE) 2,546 6.3 -6.5°
Sets 03:18:33 0° 163° (SSE) 3,497 7.0 -6.8°
